{"data":{"norad_id":38012,"epoch":"2026-09-20T05:05:05.743392Z","epoch_age_seconds":39303,"freshness":"FRESH","line1":"1 38012U 11076F   26263.21187203  .00000091  00000+0  29418-4 0  9999","line2":"2 38012  98.1901 337.0009 0001266 103.6508 340.9653 14.58543329785840","mean_motion":14.58543329,"eccentricity":0.0001266,"inclination_deg":98.1901,"raan_deg":337.0009,"arg_perigee_deg":103.6508,"mean_anomaly_deg":340.9653,"bstar":2.9418e-5,"rev_number":78584,"period_min":98.728640511989,"perigee_km":696.98553707183,"apogee_km":698.77718492083,"semimajor_km":7076.0183609963,"source":"CELESTRAK","updated_at":"2026-09-20T09:00:33.892627Z"}}